Woodinville, Washington, United States (98072)
Lat: 47.75N, Lon: 122.16W
Wx Zone: WAZ505
Local Info
Past Weather Observations for Tuesday, June 30, 2015

NOTE: This archive is for the closest National Weather Service station to Woodinville. Information may differ from the station used for current weather conditions.

Click here for Long-term Archive

Time Weather Temperature Dewpoint Humidity Pressure Winds Precip Visibility
23:53
Partly Cloudy
61°F / 16°C 52°F / 11°C 72% 30.09 in
(1019 mb)
Variable 4.6 mph
(Variable 7 kph)
- 10SM
22:53
Clear
61°F / 16°C 54°F / 12°C 77% 30.09 in
(1019 mb)
N 5.8 mph
(N 9 kph)
- 10SM
21:53
Clear
63°F / 17°C 50°F / 10°C 64% 30.09 in
(1019 mb)
N 6.9 mph
(N 11 kph)
- 10SM
19:53
Clear
64°F / 18°C 52°F / 11°C 64% 30.06 in
(1018 mb)
NNE 6.9 mph
(NNE 11 kph)
- 10SM
18:53
Clear
68°F / 20°C 54°F / 12°C 60% 30.06 in
(1018 mb)
N 8.1 mph
(N 13 kph)
- 10SM
17:53
Clear
73°F / 23°C 55°F / 13°C 53% 30.06 in
(1018 mb)
N 6.9 mph
(N 11 kph)
- 10SM
16:53
Clear
79°F / 26°C 55°F / 13°C 45% 30.06 in
(1018 mb)
N 6.9 mph
(N 11 kph)
- 10SM
14:53
Clear
79°F / 26°C 55°F / 13°C 45% 30.09 in
(1019 mb)
N 8.1 mph
(N 13 kph)
- 10SM
13:53
Clear
79°F / 26°C 59°F / 15°C 51% 30.09 in
(1019 mb)
NW 8.1 mph
(NW 13 kph)
- 10SM
12:53
Clear
79°F / 26°C 57°F / 14°C 48% 30.12 in
(1020 mb)
NW 5.8 mph
(NW 9 kph)
- 10SM
11:53
Clear
73°F / 23°C 57°F / 14°C 57% 30.12 in
(1020 mb)
W 4.6 mph
(W 7 kph)
- 10SM
10:53
Clear
73°F / 23°C 59°F / 15°C 61% 30.12 in
(1020 mb)
SSW 6.9 mph
(SSW 11 kph)
- 10SM
09:53
Clear
70°F / 21°C 57°F / 14°C 64% 30.12 in
(1020 mb)
W 5.8 mph
(W 9 kph)
- 10SM
08:53
Clear
64°F / 18°C 57°F / 14°C 78% 30.12 in
(1020 mb)
SSW 8.1 mph
(SSW 13 kph)
- 10SM
07:53
Clear
64°F / 18°C 57°F / 14°C 78% 30.12 in
(1020 mb)
SSW 5.8 mph
(SSW 9 kph)
- 10SM
06:53
Clear
64°F / 18°C 57°F / 14°C 78% 30.12 in
(1020 mb)
Calm - 10SM
05:53
Clear
63°F / 17°C 57°F / 14°C 83% 30.12 in
(1020 mb)
Calm - 10SM
04:53
Clear
61°F / 16°C 55°F / 13°C 83% 30.12 in
(1020 mb)
Calm - 10SM
03:53
Clear
61°F / 16°C 55°F / 13°C 83% 30.09 in
(1019 mb)
NE 3.5 mph
(NE 6 kph)
- 10SM
02:53
Clear
61°F / 16°C 55°F / 13°C 83% 30.09 in
(1019 mb)
N 3.5 mph
(N 6 kph)
- 10SM
01:53
Partly Cloudy
63°F / 17°C 55°F / 13°C 77% 30.09 in
(1019 mb)
Calm - 10SM
00:53
Clear
64°F / 18°C 55°F / 13°C 73% 30.09 in
(1019 mb)
NE 6.9 mph
(NE 11 kph)
- 10SM
Time Weather Temperature Dewpoint Humidity Pressure Winds Precip Visibility


Weather for websites

WeatherForYou.com, LLC is not responsible for any damages or problems caused by this service. Current weather conditions are obtained from the closest station including government and personal stations which may have varying degrees of accuracy. Weather forecasts are derived from the NOAA NDFD. Like all things, this site belongs to Jesus Christ... He just trusts us to maintain it. If you have any questions or comments email webmaster@weatherforyou.com

Copyright © 2015, WeatherForYou.com LLC. All rights reserved.